TimeEDT,TemperatureF,Dew PointF,Humidity,Sea Level PressureIn,VisibilityMPH,Wind Direction,Wind SpeedMPH,Gust SpeedMPH,PrecipitationIn,Events,Conditions,WindDirDegrees,DateUTC
12:07 AM,78.8,75.2,89,30.02,10.0,South,10.4,-,N/A,,Scattered Clouds,180,2012-10-03 04:07:00
12:46 AM,78.8,73.4,83,30.02,10.0,South,13.8,17.3,N/A,,Mostly Cloudy,180,2012-10-03 04:46:00
12:53 AM,78.1,75.0,90,30.02,10.0,South,13.8,-,N/A,,Mostly Cloudy,180,2012-10-03 04:53:00
1:20 AM,78.8,75.2,89,30.02,10.0,South,11.5,-,N/A,,Overcast,180,2012-10-03 05:20:00
1:53 AM,79.0,75.9,90,30.02,10.0,South,11.5,-,N/A,,Overcast,170,2012-10-03 05:53:00
2:04 AM,78.8,75.2,89,30.02,10.0,South,12.7,-,N/A,,Mostly Cloudy,180,2012-10-03 06:04:00
2:43 AM,78.8,75.2,89,30.02,10.0,SSW,10.4,-,N/A,,Overcast,200,2012-10-03 06:43:00
2:53 AM,79.0,75.0,88,30.02,10.0,South,10.4,-,N/A,,Overcast,190,2012-10-03 06:53:00
3:04 AM,78.8,75.2,89,30.02,10.0,South,11.5,-,N/A,,Overcast,180,2012-10-03 07:04:00
3:26 AM,78.8,75.2,89,30.03,10.0,South,10.4,-,N/A,,Overcast,190,2012-10-03 07:26:00
3:42 AM,78.8,75.2,89,30.03,10.0,SSW,10.4,18.4,0.00,,Overcast,200,2012-10-03 07:42:00
3:53 AM,79.0,75.0,88,30.03,10.0,SSW,8.1,-,0.00,,Overcast,210,2012-10-03 07:53:00
4:08 AM,78.8,75.2,89,30.03,10.0,SSW,10.4,-,0.00,Rain,Light Rain,200,2012-10-03 08:08:00
4:49 AM,77.0,75.2,94,30.04,9.0,SW,9.2,-,0.05,Rain,Light Rain,220,2012-10-03 08:49:00
4:53 AM,77.0,73.9,90,30.04,10.0,SW,10.4,-,0.05,Rain,Light Rain,220,2012-10-03 08:53:00
5:53 AM,75.0,72.0,90,30.05,10.0,SSW,4.6,-,0.00,,Partly Cloudy,210,2012-10-03 09:53:00
6:53 AM,73.9,72.0,93,30.06,10.0,Calm,Calm,-,0.00,,Clear,0,2012-10-03 10:53:00
7:53 AM,73.9,72.0,93,30.09,10.0,Calm,Calm,-,N/A,,Scattered Clouds,0,2012-10-03 11:53:00
8:53 AM,75.0,73.0,94,30.11,5.0,Calm,Calm,-,0.01,Rain,Rain,0,2012-10-03 12:53:00
9:53 AM,77.0,73.9,90,30.12,10.0,South,4.6,-,0.02,,Overcast,170,2012-10-03 13:53:00
10:53 AM,78.1,75.0,90,30.13,10.0,SE,3.5,-,N/A,,Partly Cloudy,140,2012-10-03 14:53:00
11:53 AM,81.0,75.0,82,30.12,10.0,SSW,6.9,-,N/A,,Partly Cloudy,200,2012-10-03 15:53:00
12:53 PM,81.0,75.9,85,30.12,10.0,South,6.9,-,0.00,Rain,Light Rain,190,2012-10-03 16:53:00
1:53 PM,81.0,75.9,85,30.11,10.0,SSW,6.9,-,0.00,,Overcast,200,2012-10-03 17:53:00
2:01 PM,82.4,75.2,79,30.10,10.0,SSW,5.8,-,N/A,,Mostly Cloudy,210,2012-10-03 18:01:00
2:28 PM,82.4,73.4,74,30.10,10.0,SW,6.9,-,N/A,,Scattered Clouds,220,2012-10-03 18:28:00
2:53 PM,82.0,75.0,79,30.09,10.0,SSW,6.9,-,N/A,,Partly Cloudy,200,2012-10-03 18:53:00
3:19 PM,82.4,75.2,79,30.09,10.0,WSW,8.1,-,0.00,Rain,Light Rain,240,2012-10-03 19:19:00
3:53 PM,82.9,77.0,82,30.09,5.0,West,5.8,-,0.02,Rain,Light Rain,260,2012-10-03 19:53:00
4:36 PM,82.4,73.4,74,30.09,10.0,SSW,5.8,-,0.00,,Mostly Cloudy,210,2012-10-03 20:36:00
4:45 PM,82.4,73.4,74,30.10,10.0,SSW,8.1,-,0.00,,Scattered Clouds,200,2012-10-03 20:45:00
4:53 PM,82.0,73.0,74,30.10,10.0,SSW,8.1,-,0.00,,Mostly Cloudy,210,2012-10-03 20:53:00
5:00 PM,82.4,73.4,74,30.10,10.0,SSW,5.8,-,N/A,,Scattered Clouds,210,2012-10-03 21:00:00
5:53 PM,81.0,71.1,72,30.11,10.0,SSW,5.8,-,N/A,,Clear,200,2012-10-03 21:53:00
6:53 PM,78.1,71.1,79,30.12,10.0,South,6.9,-,N/A,,Clear,190,2012-10-03 22:53:00
7:53 PM,75.9,72.0,87,30.14,10.0,SSW,4.6,-,N/A,,Clear,210,2012-10-03 23:53:00
8:53 PM,75.2,71.6,89,30.15,10.0,South,5.8,-,N/A,,Partly Cloudy,190,2012-10-04 00:53:00
9:53 PM,75.0,72.0,90,30.18,10.0,SSW,5.8,-,N/A,,Partly Cloudy,200,2012-10-04 01:53:00
10:53 PM,75.2,71.6,89,30.18,10.0,SSW,6.9,-,N/A,,Overcast,200,2012-10-04 02:53:00
11:53 PM,75.9,72.0,87,30.19,10.0,SW,6.9,-,N/A,,Overcast,220,2012-10-04 03:53:00